Location: Les Gen�tes
(46.3104°N, 1.5969°E)
Time: 19:12:49
(UTC+00:00)

Cosmos 2151 Rocket - Pass Details

Date: 01 June 2020
Orbit: 618 x 642 km, 82.5° (Epoch: 02 July)

Event Time Altitude Azimuth Distance (km) Brightness Sun altitude
Rises 20:42:55 0° 349° (N) 2,960 8.1 -9.3°
Reaches altitude 10° 20:45:10 10° 349° (N) 2,047 7.2 -9.6°
Maximum altitude 20:49:43 81° 262° (W) 656 3.7 -10.1°
Drops below altitude 10° 20:54:13 10° 176° (S) 2,028 5.7 -10.6°
Enters shadow 20:54:34 - 176° (S) 2,166 5.9 -10.6°
